This is the latest recevied weather packets stored in our database for station/object K3MV-13. If no packets are shown the sender has not sent any weather packets the latest 10 day(s).
| Time | Temp. | Humidity | Pressure | Rain* | Wind** | Luminosity | Snow |
|---|---|---|---|---|---|---|---|
| 1777761340 | 5.56° C | 67% | 1013.7 hPa | 0 mm | - | 82 W/m² | - |
| 1777761039 | 5.56° C | 66% | 1013.8 hPa | 0 mm | - | 91 W/m² | - |
| 1777760735 | 5.56° C | 65% | 1013.8 hPa | 0 mm | - | 88 W/m² | - |
| 1777760432 | 5.56° C | 65% | 1013.6 hPa | 0 mm | - | 87 W/m² | - |
| 1777760127 | 6.11° C | 64% | 1013.7 hPa | 0 mm | - | 99 W/m² | - |
| 1777759825 | 6.11° C | 65% | 1013.6 hPa | 0 mm | - | 116 W/m² | - |
| 1777759520 | 6.11° C | 65% | 1013.7 hPa | 0 mm | - | 124 W/m² | - |
| 1777759218 | 6.11° C | 64% | 1013.7 hPa | 0 mm | - | 101 W/m² | - |
| 1777758915 | 6.11° C | 62% | 1013.7 hPa | 0 mm | - | 103 W/m² | - |
| 1777758612 | 6.67° C | 62% | 1013.4 hPa | 0 mm | - | 125 W/m² | - |
| 1777758309 | 6.67° C | 62% | 1013.5 hPa | 0 mm | - | 131 W/m² | - |
| 1777758006 | 6.67° C | 62% | 1013.5 hPa | 0 mm | - | 107 W/m² | - |
| 1777757702 | 6.67° C | 61% | 1013.4 hPa | 0 mm | - | 110 W/m² | - |
| 1777757401 | 6.67° C | 64% | 1013.5 hPa | 0 mm | - | 117 W/m² | - |
| 1777757099 | 6.11° C | 64% | 1013.3 hPa | 0 mm | - | 137 W/m² | - |
| 1777756796 | 6.11° C | 62% | 1013.3 hPa | 0 mm | - | 100 W/m² | - |
| 1777756492 | 6.67° C | 60% | 1013.4 hPa | 0 mm | - | 81 W/m² | - |
| 1777756190 | 6.67° C | 60% | 1013.3 hPa | 0 mm | - | 106 W/m² | - |
| 1777755886 | 6.67° C | 60% | 1013.2 hPa | 0 mm | - | 148 W/m² | - |
| 1777755583 | 7.22° C | 59% | 1013.4 hPa | 0 mm | - | 162 W/m² | - |
| 1777755279 | 7.22° C | 60% | 1013.4 hPa | 0 mm | - | 174 W/m² | - |
| 1777754977 | 7.22° C | 60% | 1013.4 hPa | 0 mm | - | 161 W/m² | - |
| 1777754673 | 7.22° C | 58% | 1013.1 hPa | 0 mm | - | 139 W/m² | - |
| 1777754372 | 7.22° C | 58% | 1013 hPa | 0 mm | - | 186 W/m² | - |
| 1777754069 | 7.22° C | 57% | 1013.2 hPa | 0 mm | - | 163 W/m² | - |
* Rain latest hour (hover to see other rain measurements)
** Current wind speed in m/s (hover to see current wind gust speed)